Regional Weather Roundup
Issued by NWS Portland, ME

Home | Current Version | Previous Version | Text Only | Print | Product List | Glossary On
Versions: 1 2 3 4 5 6 7 8 9 10 11 12 13 14 15 16 17 18 19 20 21 22 23 24 25 26 27 28 29 30 31 32 33 34 35 36 37 38 39 40 41 42 43 44 45 46 47 48 49 50
000
ASUS41 KGYX 242010
RWRGYX
WEATHER ROUNDUP FOR MAINE AND NEW HAMPSHIRE
NATIONAL WEATHER SERVICE GRAY ME
400 PM EDT SUN JUL 24 2016

MEZ002-005-006-010-012-015-018-020-021-024-026-027-029-242100-
MAINE

CITY           SKY/WX    TMP DP  RH WIND       PRES   REMARKS
PORTLAND       PTSUNNY   81  62  52 SE12      29.91F
SANFORD          N/A     84  58  40 W5        29.91F
BAR HARBOR     SUNNY     82  60  47 VRB5      29.87S
WISCASSET      MOSUNNY   84  53  34 W8        29.91F
ROCKLAND       SUNNY     74  63  68 S9        29.89F
FRYEBURG       NOT AVBL
LEWISTONAUBURN   N/A     81  55  40 N7        29.91F
AUGUSTA        SUNNY     83  57  41 SW3       29.91F
WATERVILLE     SUNNY     81  56  42 CALM      29.88F
BANGOR         MOSUNNY   87  56  34 NW6       29.88F
GREENVILLE       N/A     74  50  42 N9        29.93F
MILLINOCKET    PTSUNNY   83  56  39 NW14G20   29.89S
HOULTON        PTSUNNY   83  60  45 NW9       29.86S
PRESQUE ISLE   NOT AVBL
FRENCHVILLE    MOSUNNY   76  57  51 NW12G17   29.91R
CARIBOU        PTSUNNY   81  60  48 NW8       29.88S
$$

NHZ002-005-008-009-011-012-014-242100-
NEW HAMPSHIRE

CITY           SKY/WX    TMP DP  RH WIND       PRES   REMARKS
PORTSMOUTH     PTSUNNY   86  55  34 W7        29.89F
ROCHESTER      SUNNY     86  55  34 VRB7      29.91F
NASHUA         SUNNY     88  57  34 NW10G17   29.93S
MANCHESTER     PTSUNNY   88  52  29 N14       29.91F
CONCORD        SUNNY     88  48  25 W14G20    29.93F
LACONIA        SUNNY     80  54  40 W6        29.95F
PLYMOUTH       FAIR      79  53  40 W8        29.94F
BERLIN         SUNNY     77  55  46 VRB3      29.98F
WHITEFIELD     SUNNY     75  55  49 W3        29.99F
JAFFREY        SUNNY     83  48  29 VRB6      29.97F
KEENE          MOSUNNY   85  52  32 NW7       29.96
LEBANON        MOSUNNY   83  48  29 VRB6      29.95F
MT WASHINGTON  MOSUNNY   55  34  44 N16         N/A
$$

VTZ005-007-008-242100-
VERMONT

CITY           SKY/WX    TMP DP  RH WIND       PRES   REMARKS
ST JOHNSBURY     N/A     77  55  46 MISG      29.96F
MONTPELIER     FAIR      73  53  49 NW6       30.03F
BURLINGTON     PTSUNNY   77  54  44 NE7       29.98F
$$

MAZ007-012-024-CTZ003-RIZ002-NYZ038-NYZ072-242100-
SOUTHERN NEW ENGLAND AND NY

CITY           SKY/WX    TMP DP  RH WIND       PRES   REMARKS
BOSTON         MOSUNNY   84  60  44 E12       29.91S
WORCESTER      SUNNY     85  55  35 W8        29.96F
NANTUCKET      MOSUNNY   75  65  70 SW13      29.95S
PROVIDENCE     MOSUNNY   84  64  50 SE13      29.93F
HARTFORD       PTSUNNY   92  53  26 NW8       29.91F
ALBANY         PTSUNNY   86  58  38 NE6       29.95F
NEW YORK CITY  PTSUNNY   88  63  43 S17       29.93S
$$

ANZ081-ANZ082-ANZ150-NHZ014-MEZ023>029-242100-
COASTAL MARINE OBSERVATIONS

STATION/POSITION TIME  TEMP    WIND        PRES    WAVE
                       AIR SEA DIR/SP/G            HT/PER
                 (UTC) (F)     (DEG/KT/KT) (MB)    (FT/S)
MOUNT DESERT ROC 2000   65     240/ 18/ 19 1011.9F
MATINICUS ROCK   1900   71     250/  8/  8 1012.6R
ISLE OF SHOALS   1900   72     150/ 13/ 13 1013.1R
JEFFREYS LEDGE   1908      70                N/A     2/ 8
CASHES LEDGE BUO 1950   71 70  230/ 10/ 10 1012.9F   2/ 8
GEORGES BANK BUO 1850   65 64              1011.5    5/ 7
$$

.............KEY..............
   WCI - WIND CHILL
   TC  - TEMPERATURE IN CELSIUS
   VSB - VISIBILITY IN MILES
   HX  - HEAT INDEX
   FAIR- INDICATES FEW OR NO CLOUDS BELOW 12,000 FT, WITH NO
         SIGNIFICANT WEATHER AND/OR OBSTRUCTIONS TO VISIBILITY.





USA.gov is the U.S. government's official web portal to all federal, state and local government web resources and services.